Flag for U.S.A. Weather past 2 weeks in Pullman, Washington, U.S.A.

Now
42 °F

Sunny.


Feels Like: 38 °F
Forecast: 21 / 41 °F
Wind: 6 mph from Southwest

Location: Pullman / Moscow Regional Airport

Current Time: Mar 4, 2015 at 3:25:36 PM

Latest Report: Mar 4, 2015 at 1:53 PM


Visibility: 10 mi

Pressure: 30.36 "Hg

Humidity: 27%

Dew point: 10 °F

Location of PullmanLocation

Historic Weather in Pullman — Graph

°F

Pullman temperature yesterday

Maximum temperature yesterday: 37 °F (at 1:53 PM)
Minimum temperature yesterday: 22 °F (at 6:53 AM)
Average temperature yesterday: 29 °F

Past Weeks' High & Low Weather Summary

 TemperatureHumidityPressure
High52 °F (Feb 18, 1:53 PM)97% (Feb 21, 8:53 AM)30.53 "Hg (Feb 21, 8:53 AM)
Low22 °F (Mar 3, 6:53 AM)23% (Feb 22, 11:53 AM)29.74 "Hg (Feb 27, 3:53 PM)
Average35 °F64%30.21 "Hg
* Reported Feb 17 12:53 PM — Mar 4 12:53 PM, Pullman, Weather by CustomWeather, © 2015

Note: Actual official high and low records may vary slightly from our data, if they occured in-between our weather recording intervals... More about our weather records

Advertising

Pullman weather history for previous 24 hours

 ConditionsComfort  
Time TempWeatherWind HumidityBarometerVisibility
12:53 PM
Wed, Mar 4
41 °FSunny.N/A30%30.36 "Hg10 mi
11:53 AM38 °FSunny.6 mph41%30.38 "Hg10 mi
10:53 AM36 °FSunny.7 mph44%30.38 "Hg10 mi
9:53 AM34 °FSunny.7 mph54%30.38 "Hg10 mi
8:53 AM31 °FSunny.8 mph61%30.38 "Hg10 mi
7:53 AM27 °FSunny.8 mph69%30.36 "Hg10 mi
6:53 AM23 °FSunny.7 mph74%30.35 "Hg10 mi
5:53 AM22 °FClear.6 mph75%30.34 "Hg10 mi
4:53 AM22 °FClear.5 mph72%30.32 "Hg10 mi
3:53 AM23 °FClear.6 mph68%30.31 "Hg10 mi
2:53 AM22 °FClear.3 mph75%30.31 "Hg10 mi
1:53 AM22 °FClear.No wind75%30.31 "Hg10 mi
12:53 AM23 °FClear.No wind74%30.30 "Hg10 mi
11:53 PM
Tue, Mar 3
24 °FClear.3 mph71%30.29 "Hg10 mi
10:53 PM25 °FClear.No wind69%30.28 "Hg10 mi
9:53 PM25 °FClear.No wind69%30.27 "Hg10 mi
8:53 PM25 °FClear.No wind69%30.26 "Hg10 mi
7:53 PM27 °FClear.No wind66%30.25 "Hg10 mi
6:53 PM29 °FClear.3 mph58%30.24 "Hg10 mi
5:53 PM30 °FClear.No wind59%30.24 "Hg10 mi
4:53 PM35 °FSunny.12 mph42%30.21 "Hg10 mi
3:53 PM36 °FPassing clouds.9 mph40%30.20 "Hg10 mi
Weather by CustomWeather, © 2015

See weather overviewHow to use our weather pages